| time (UTC) | temp F | wind direction | speed MPH | gust MPH | rain 1hr in | rain 24hr in | rain mn in | humidity % | barometer mb |
| 20260831110111 | 74 | 211 | 5.0 | 7.0 | 0.00 | 0.00 | 0.00 | 72 | 1015.9 |
| 20260831104611 | 73 | 198 | 3.0 | 6.0 | 0.00 | 0.00 | 0.00 | 74 | 1015.9 |
| 20260831103111 | 80 | 228 | 2.0 | 4.0 | 0.00 | 0.00 | 0.00 | 50 | 1014.9 |
| 20260831101611 | 72 | 209 | 2.0 | 5.0 | 0.00 | 0.00 | 0.00 | 78 | 1015.8 |
| 20260831100112 | 71 | 196 | 1.0 | 4.0 | 0.00 | 0.00 | 0.00 | 80 | 1015.9 |
| 20260831094611 | 70 | 191 | 1.0 | 4.0 | 0.00 | 0.00 | 0.00 | 80 | 1016.0 |
| 20260831093112 | 69 | 246 | 0.0 | 0.0 | 0.00 | 0.00 | 0.00 | 80 | 1015.9 |
| 20260831090110 | 69 | 203 | 3.0 | 6.0 | 0.00 | 0.00 | 0.00 | 77 | 1015.7 |
| 20260831084610 | 70 | 220 | 3.0 | 7.0 | 0.00 | 0.00 | 0.00 | 80 | 1015.9 |
| 20260831081610 | 67 | 308 | 0.0 | 1.0 | 0.00 | 0.00 | 0.00 | 88 | 1015.2 |
| 20260831080110 | 66 | 227 | 0.0 | 2.0 | 0.00 | 0.00 | 0.00 | 88 | 1015.0 |
| 20260831074610 | 65 | 245 | 1.0 | 4.0 | 0.00 | 0.00 | 0.00 | 87 | 1015.0 |
| 20260831073110 | 66 | 155 | 0.0 | 0.0 | 0.00 | 0.00 | 0.00 | 86 | 1015.1 |
| 20260831071610 | 66 | 209 | 0.0 | 4.0 | 0.00 | 0.00 | 0.00 | 84 | 1015.2 |
| 20260831070110 | 66 | 225 | 0.0 | 2.0 | 0.00 | 0.00 | 0.00 | 84 | 1015.0 |
| 20260831064610 | 67 | 277 | 0.0 | 0.0 | 0.00 | 0.00 | 0.00 | 82 | 1014.8 |
| 20260831061609 | 66 | 286 | 0.0 | 0.0 | 0.00 | 0.00 | 0.00 | 82 | 1014.7 |
| 20260831060110 | 66 | 287 | 1.0 | 6.0 | 0.00 | 0.00 | 0.00 | 81 | 1014.8 |
| 20260831054609 | 66 | 151 | 0.0 | 0.0 | 0.00 | 0.00 | 0.00 | 81 | 1014.7 |
| 20260831053110 | 66 | 173 | 0.0 | 4.0 | 0.00 | 0.00 | 0.00 | 81 | 1014.6 |
| 20260831051609 | 66 | 340 | 0.0 | 2.0 | 0.00 | 0.00 | 0.00 | 81 | 1014.7 |
| 20260831050109 | 66 | 5 | 1.0 | 3.0 | 0.00 | 0.00 | 0.00 | 80 | 1014.5 |
| 20260831044609 | 66 | 5 | 1.0 | 2.0 | 0.00 | 0.00 | 0.00 | 78 | 1014.7 |
| 20260831043109 | 66 | 289 | 1.0 | 4.0 | 0.00 | 0.00 | 0.00 | 78 | 1014.6 |
| 20260831040114 | 65 | 299 | 2.0 | 4.0 | 0.00 | 0.00 | 0.00 | 77 | 1015.4 |
| 20260831034614 | 64 | 300 | 2.0 | 4.0 | 0.00 | 0.00 | 0.00 | 76 | 1015.5 |
| 20260831031613 | 63 | 320 | 2.0 | 4.0 | 0.00 | 0.00 | 0.00 | 78 | 1015.2 |
| 20260831030113 | 63 | 319 | 3.0 | 4.0 | 0.00 | 0.00 | 0.00 | 79 | 1015.1 |
| 20260831024613 | 63 | 327 | 0.0 | 0.0 | 0.00 | 0.00 | 0.00 | 77 | 1015.1 |
| 20260831023113 | 63 | 296 | 3.0 | 4.0 | 0.00 | 0.00 | 0.00 | 78 | 1015.1 |
| 20260831020113 | 63 | 319 | 3.0 | 4.0 | 0.00 | 0.00 | 0.00 | 79 | 1015.2 |
| 20260831014613 | 62 | 306 | 4.0 | 7.0 | 0.00 | 0.00 | 0.00 | 79 | 1015.3 |
| 20260831013113 | 62 | 296 | 3.0 | 5.0 | 0.00 | 0.00 | 0.00 | 80 | 1015.2 |
| 20260831011614 | 62 | 328 | 0.0 | 2.0 | 0.00 | 0.00 | 0.00 | 80 | 1015.3 |
| 20260831010112 | 63 | 296 | 1.0 | 2.0 | 0.00 | 0.00 | 0.00 | 79 | 1015.4 |
| 20260831004612 | 63 | 99 | 0.0 | 0.0 | 0.00 | 0.00 | 0.00 | 77 | 1015.4 |
| 20260831003112 | 63 | 71 | 0.0 | 0.0 | 0.00 | 0.00 | 0.00 | 78 | 1015.5 |
| 20260831001612 | 63 | 251 | 2.0 | 3.0 | 0.00 | 0.00 | 0.00 | 78 | 1015.7 |
| 20260831000112 | 63 | 306 | 1.0 | 2.0 | 0.00 | 0.00 | 0.00 | 80 | 1015.6 |
| 20260830234612 | 63 | 306 | 0.0 | 1.0 | 0.00 | 0.00 | 0.00 | 79 | 1015.7 |
| 20260830231613 | 64 | 305 | 1.0 | 2.0 | 0.00 | 0.00 | 0.00 | 77 | 1015.8 |
| 20260830230111 | 64 | 307 | 2.0 | 3.0 | 0.00 | 0.00 | 0.00 | 77 | 1015.8 |
| 20260830224611 | 64 | 296 | 2.0 | 3.0 | 0.00 | 0.00 | 0.00 | 77 | 1016.1 |
| 20260830221611 | 64 | 302 | 0.0 | 1.0 | 0.00 | 0.00 | 0.00 | 78 | 1016.3 |
| 20260830220111 | 64 | 300 | 0.0 | 0.0 | 0.00 | 0.00 | 0.00 | 77 | 1016.2 |
| 20260830214612 | 65 | 277 | 0.0 | 0.0 | 0.00 | 0.00 | 0.00 | 77 | 1016.3 |
| 20260830213111 | 65 | 277 | 0.0 | 0.0 | 0.00 | 0.00 | 0.00 | 75 | 1016.1 |
| 20260830210110 | 67 | 236 | 2.0 | 2.0 | 0.00 | 0.00 | 0.00 | 73 | 1016.2 |
| 20260830204611 | 67 | 167 | 0.0 | 2.0 | 0.00 | 0.00 | 0.00 | 72 | 1016.1 |
| 20260830203110 | 68 | 295 | 0.0 | 0.0 | 0.00 | 0.00 | 0.00 | 71 | 1015.8 |
| 20260830201612 | 69 | 294 | 1.0 | 1.0 | 0.00 | 0.00 | 0.00 | 69 | 1015.8 |
| 20260830194610 | 70 | 292 | 2.0 | 4.0 | 0.00 | 0.00 | 0.00 | 65 | 1015.9 |
| 20260830191610 | 69 | 309 | 3.0 | 4.0 | 0.00 | 0.00 | 0.00 | 66 | 1015.7 |
| 20260830190110 | 70 | 306 | 2.0 | 3.0 | 0.00 | 0.00 | 0.00 | 65 | 1015.9 |
| 20260830184610 | 70 | 306 | 2.0 | 3.0 | 0.00 | 0.00 | 0.00 | 64 | 1015.8 |
| 20260830183110 | 71 | 279 | 0.0 | 2.0 | 0.00 | 0.00 | 0.00 | 63 | 1015.7 |
| 20260830180109 | 74 | 276 | 1.0 | 2.0 | 0.00 | 0.00 | 0.00 | 60 | 1015.4 |
| 20260830171609 | 79 | 200 | 0.0 | 0.0 | 0.00 | 0.00 | 0.00 | 53 | 1015.0 |
| 20260830170109 | 80 | 228 | 2.0 | 4.0 | 0.00 | 0.00 | 0.00 | 50 | 1014.9 |
| 20260830164609 | 81 | 248 | 4.0 | 8.0 | 0.00 | 0.00 | 0.00 | 48 | 1014.9 |
| 20260830160109 | 83 | 207 | 3.0 | 6.0 | 0.00 | 0.00 | 0.00 | 47 | 1014.9 |
| 20260830154609 | 83 | 205 | 2.0 | 10.0 | 0.00 | 0.00 | 0.00 | 48 | 1014.8 |
| 20260830153109 | 82 | 206 | 3.0 | 8.0 | 0.00 | 0.00 | 0.00 | 48 | 1014.8 |
| 20260830151610 | 83 | 175 | 5.0 | 7.0 | 0.00 | 0.00 | 0.00 | 49 | 1014.9 |
| 20260830144608 | 82 | 209 | 4.0 | 8.0 | 0.00 | 0.00 | 0.00 | 48 | 1015.1 |
| 20260830143108 | 82 | 209 | 3.0 | 11.0 | 0.00 | 0.00 | 0.00 | 49 | 1015.1 |
| 20260830140113 | 84 | 185 | 6.0 | 11.0 | 0.00 | 0.00 | 0.00 | 45 | 1015.3 |
| 20260830134613 | 84 | 196 | 9.0 | 13.0 | 0.00 | 0.00 | 0.00 | 45 | 1015.4 |
| 20260830133113 | 83 | 199 | 7.0 | 15.0 | 0.00 | 0.00 | 0.00 | 47 | 1015.5 |
| 20260830130113 | 83 | 196 | 5.0 | 9.0 | 0.00 | 0.00 | 0.00 | 48 | 1015.8 |
| 20260830123112 | 81 | 192 | 9.0 | 12.0 | 0.00 | 0.00 | 0.00 | 48 | 1015.9 |
| 20260830121612 | 83 | 178 | 10.0 | 18.0 | 0.00 | 0.00 | 0.00 | 47 | 1015.8 |
| 20260830120112 | 82 | 155 | 7.0 | 13.0 | 0.00 | 0.00 | 0.00 | 48 | 1016.0 |
| 20260830114612 | 82 | 245 | 3.0 | 10.0 | 0.00 | 0.00 | 0.00 | 48 | 1016.2 |
| 20260830111612 | 82 | 192 | 4.0 | 14.0 | 0.00 | 0.00 | 0.00 | 50 | 1016.5 |